Waarnemingen

Advertentie
Mijn weer
Antwerpen, België (6450): temperatuur & dauwpunt: 07.12.2018 15:00:00 - 13.12.2018 15:00:00 (CET)Antwerpen, België (6450): windsnelheid & windstoten: 07.12.2018 15:00:00 - 13.12.2018 15:00:00 (CET)Antwerpen, België (6450): windrichting: 07.12.2018 15:00:00 - 13.12.2018 15:00:00 (CET)Antwerpen, België (6450): luchtdruk: 07.12.2018 15:00:00 - 13.12.2018 15:00:00 (CET)Antwerpen, België (6450): zicht: 07.12.2018 15:00:00 - 13.12.2018 15:00:00 (CET)
Datum & Tijd tt [°C] td [°C] ff [km/u] ff [kn] fx [km/u] fx [kn] dd ppp [hPa] vv [km]
13.12.2018 15:00:00 2,9 -2,9 24 13 36 19 O 1019,4 10
13.12.2018 14:00:00 3,0 -1,9 22 12 36 19 O 1019,6 10
13.12.2018 13:00:00 2,9 -1,5 24 13 - - O 1019,8 10
13.12.2018 12:00:00 2,4 -0,5 18 10 32 18 O 1020,4 10
13.12.2018 11:00:00 1,5 -0,5 16 9 25 14 O 1020,8 10
13.12.2018 10:00:00 0,1 -0,8 13 7 - - O 1021,0 7
13.12.2018 09:00:00 -0,4 -1,0 9 5 18 10 ONO 1020,9 6
13.12.2018 08:00:00 -0,2 -0,8 13 7 18 10 ONO 1020,8 6
13.12.2018 07:00:00 -0,1 -0,7 11 6 - - O 1020,7 7
13.12.2018 06:00:00 -0,1 -0,7 11 6 22 12 ONO 1020,9 7
13.12.2018 05:00:00 -0,5 -1,2 11 6 14 8 O 1021,1 9
13.12.2018 04:00:00 -0,3 -1,3 11 6 - - O 1021,8 10
13.12.2018 03:00:00 0,1 -0,9 18 10 22 12 O 1022,1 10
13.12.2018 02:00:00 -0,6 -1,3 8 4 14 8 O 1022,6 10
13.12.2018 01:00:00 0,1 -1,1 11 6 - - O 1023,0 10
13.12.2018 00:00:00 0,4 -0,4 11 6 18 10 O 1023,2 10
12.12.2018 23:00:00 0,7 -0,1 11 6 18 10 O 1023,5 10
12.12.2018 22:00:00 0,9 -0,3 11 6 - - ONO 1024,0 10
12.12.2018 21:00:00 1,2 -0,6 9 5 14 8 O 1024,3 10
12.12.2018 20:00:00 2,0 0,0 8 4 - - ONO - 10
12.12.2018 19:00:00 1,3 0,0 9 5 - - ONO 1024,7 8
12.12.2018 18:00:00 1,9 1,1 8 4 14 8 ONO 1024,7 6
12.12.2018 17:00:00 3,2 2,1 11 6 18 10 ONO 1024,7 8
12.12.2018 16:00:00 4,3 2,1 15 8 - - O 1024,6 10
12.12.2018 15:00:00 5,0 2,4 9 5 14 8 O 1024,9 10
12.12.2018 14:00:00 4,6 2,4 8 4 14 8 ZO 1025,4 10
12.12.2018 13:00:00 3,6 1,9 9 5 - - O 1025,7 8
12.12.2018 12:00:00 2,6 1,8 2 1 7 4 - 1026,2 2,5
12.12.2018 11:00:00 1,2 0,5 4 2 7 4 O 1026,6 4,2
12.12.2018 10:00:00 -2,8 -2,8 2 1 - - ZO 1026,3 3,0
12.12.2018 09:00:00 -3,5 -3,5 2 1 4 2 OZO 1026,3 0,2
12.12.2018 08:00:00 -2,9 -2,9 2 1 4 2 ONO 1025,9 0,9
12.12.2018 07:00:00 -2,2 -2,2 0 0 - - N 1025,7 0,8
12.12.2018 06:00:00 -2,4 -2,4 2 1 4 2 ZO 1025,6 0,3
12.12.2018 05:00:00 -0,5 -0,6 2 1 7 4 - 1025,6 6
12.12.2018 04:00:00 -0,6 -0,6 2 1 - - O 1025,6 0,3
12.12.2018 03:00:00 -0,1 -0,4 4 2 4 2 O 1025,5 3,1
12.12.2018 02:00:00 0,9 0,7 0 0 7 4 N 1025,1 10
12.12.2018 01:00:00 2,0 1,9 0 0 - - N 1025,4 10
12.12.2018 00:00:00 2,5 2,2 2 1 7 4 - 1025,5 10
11.12.2018 23:00:00 3,2 2,0 2 1 4 2 - 1025,5 10
11.12.2018 22:00:00 3,2 2,3 4 2 - - WZW 1025,6 10
11.12.2018 21:00:00 2,1 0,6 2 1 4 2 - 1025,4 10
11.12.2018 20:00:00 3,9 2,1 2 1 11 6 - 1025,4 10
11.12.2018 19:00:00 4,8 1,8 4 2 - - WZW 1025,2 10
11.12.2018 18:00:00 5,1 1,7 4 2 7 4 WZW 1025,0 10
11.12.2018 17:00:00 6,1 1,2 0 0 7 4 N 1025,0 10
11.12.2018 16:00:00 6,9 1,7 5 3 - - W 1025,0 10
11.12.2018 15:00:00 7,2 1,4 11 6 22 12 W 1025,0 10
11.12.2018 14:00:00 7,9 2,3 9 5 18 10 WNW 1025,3 10
11.12.2018 13:00:00 7,4 1,6 13 7 - - W 1025,6 10
11.12.2018 12:00:00 6,9 1,8 11 6 14 8 W 1026,0 10
11.12.2018 11:00:00 5,9 1,2 8 4 22 12 W 1026,0 10
11.12.2018 10:00:00 5,2 1,5 5 3 - - W 1025,9 10
11.12.2018 09:00:00 5,0 0,9 5 3 11 6 ZZW 1025,6 10
11.12.2018 08:00:00 4,7 1,0 9 5 11 6 W 1025,4 10
11.12.2018 07:00:00 5,0 1,0 9 5 - - WNW 1025,7 10
11.12.2018 06:00:00 4,7 0,9 5 3 14 8 W 1025,8 10
11.12.2018 05:00:00 4,5 0,9 8 4 14 8 W 1025,6 10
11.12.2018 04:00:00 4,1 0,7 9 5 - - W 1025,7 10
11.12.2018 03:00:00 3,9 0,9 9 5 14 8 W 1025,8 10
11.12.2018 02:00:00 4,0 1,2 9 5 14 8 W 1025,9 10
11.12.2018 01:00:00 4,0 1,7 9 5 - - W 1026,1 10
11.12.2018 00:00:00 4,1 2,2 9 5 14 8 W 1026,2 10
10.12.2018 23:00:00 4,4 2,9 8 4 18 10 W 1025,8 10
10.12.2018 22:00:00 5,0 3,1 11 6 - - W 1025,7 10
10.12.2018 21:00:00 5,3 3,1 11 6 18 10 W 1025,7 10
10.12.2018 20:00:00 5,6 3,3 15 8 32 18 W 1025,6 10
10.12.2018 19:00:00 6,5 3,4 22 12 - - NW 1025,5 10
10.12.2018 18:00:00 6,7 3,4 16 9 32 18 WNW 1025,4 10
10.12.2018 17:00:00 6,6 3,5 22 12 36 19 WNW 1025,1 10
10.12.2018 16:00:00 6,5 4,1 22 12 - - NW 1024,7 10
10.12.2018 15:00:00 8,0 1,5 29 16 47 25 WNW 1024,1 10
10.12.2018 14:00:00 8,3 2,8 28 15 43 23 WNW 1023,9 10
10.12.2018 13:00:00 8,2 2,8 28 15 - - WNW 1024,0 10
10.12.2018 12:00:00 7,8 3,6 24 13 36 19 WNW 1023,9 10
10.12.2018 11:00:00 7,8 3,5 22 12 36 19 WNW 1023,8 10
10.12.2018 10:00:00 6,2 3,1 13 7 - - W 1023,5 10
10.12.2018 09:00:00 5,4 3,0 13 7 18 10 W 1022,9 10
10.12.2018 08:00:00 5,2 3,1 15 8 22 12 W 1022,3 10
10.12.2018 07:00:00 5,4 3,0 13 7 - - W 1022,0 10
10.12.2018 06:00:00 5,3 3,1 15 8 22 12 W 1021,5 10
10.12.2018 05:00:00 5,3 2,9 13 7 18 10 W 1021,0 10
10.12.2018 04:00:00 5,6 3,0 15 8 - - W 1020,5 10
10.12.2018 03:00:00 5,7 3,1 13 7 18 10 W 1020,3 10
10.12.2018 02:00:00 5,9 3,3 13 7 22 12 W 1019,7 10
10.12.2018 01:00:00 6,5 2,4 13 7 - - NNW 1019,3 10
10.12.2018 00:00:00 6,2 3,0 21 11 32 18 NNW 1018,5 10
09.12.2018 23:00:00 7,3 4,4 18 10 32 18 WNW 1017,3 10
09.12.2018 22:00:00 7,4 4,2 22 12 - - NW 1016,6 10
09.12.2018 21:00:00 7,1 5,3 26 14 47 25 NW 1015,5 8
09.12.2018 20:00:00 8,2 3,9 29 16 47 25 WNW 1014,4 10
09.12.2018 19:00:00 7,9 4,9 26 14 - - WNW 1013,1 10
09.12.2018 18:00:00 8,4 4,4 28 15 47 25 WNW 1011,4 10
09.12.2018 17:00:00 8,5 5,4 31 17 50 27 WNW 1009,8 10
09.12.2018 16:00:00 8,9 5,7 35 19 - - WNW 1007,9 10
09.12.2018 15:00:00 9,5 5,9 34 18 54 29 NW 1006,1 10
09.12.2018 14:00:00 9,8 6,9 29 16 50 27 WNW 1004,4 10
09.12.2018 13:00:00 8,7 7,3 34 18 - - NW 1003,0 6
09.12.2018 12:00:00 8,8 7,4 22 12 32 18 W 1002,0 9
09.12.2018 11:00:00 7,7 6,2 16 9 54 29 WNW 1001,1 3,0
09.12.2018 10:00:00 8,3 7,0 11 6 - - WNW 1000,5 4,0
09.12.2018 09:00:00 8,5 6,4 21 11 47 25 WZW 1000,0 8
09.12.2018 08:00:00 8,7 5,8 29 16 58 31 W 999,4 7
09.12.2018 07:00:00 9,4 5,0 34 18 - - W 999,0 10
09.12.2018 06:00:00 9,7 4,9 34 18 61 33 W 998,5 10
09.12.2018 05:00:00 9,2 6,3 31 17 65 35 W 997,9 8
09.12.2018 04:00:00 9,6 6,1 35 19 - - W 997,6 10
09.12.2018 03:00:00 9,4 6,4 34 18 58 31 W 997,2 7
09.12.2018 02:00:00 9,6 6,1 29 16 50 27 W 997,3 10
09.12.2018 01:00:00 10,2 5,7 29 16 - - W 997,2 10
09.12.2018 00:00:00 10,6 7,4 34 18 58 31 W 996,6 10
08.12.2018 23:00:00 11,0 7,8 37 20 58 31 W 996,5 10
08.12.2018 22:00:00 11,3 9,3 34 18 - - W 996,5 10
08.12.2018 21:00:00 10,9 9,5 28 15 47 25 WZW 996,8 10
08.12.2018 20:00:00 10,0 9,1 29 16 50 27 ZW 997,4 2,3
08.12.2018 19:00:00 9,4 8,8 26 14 - - ZZW 999,2 6
08.12.2018 18:00:00 9,4 8,6 26 14 43 23 ZZW 1001,2 2,5
08.12.2018 17:00:00 11,2 6,2 21 11 50 27 ZW 1003,0 10
08.12.2018 16:00:00 11,3 5,3 29 16 - - WZW 1004,0 10
08.12.2018 15:00:00 11,2 4,7 34 18 58 31 W 1004,5 10
08.12.2018 14:00:00 10,8 4,4 31 17 54 29 WZW 1005,1 10
08.12.2018 13:00:00 10,8 4,2 35 19 - - W 1005,0 10
08.12.2018 12:00:00 10,3 4,5 31 17 54 29 W 1005,1 10
08.12.2018 11:00:00 10,1 4,5 28 15 61 33 WZW 1005,0 10
08.12.2018 10:00:00 9,8 4,3 34 18 - - W 1004,3 10
08.12.2018 09:00:00 8,7 4,7 24 13 40 21 WZW 1004,4 10
08.12.2018 08:00:00 7,8 5,2 21 11 40 21 ZW 1004,3 10
08.12.2018 07:00:00 7,5 5,3 24 13 - - ZW 1004,5 10
08.12.2018 06:00:00 7,4 5,2 22 12 40 21 ZW 1004,9 10
08.12.2018 05:00:00 7,4 4,8 26 14 40 21 ZW 1005,1 10
08.12.2018 04:00:00 6,7 4,5 18 10 - - ZW 1005,4 10
08.12.2018 03:00:00 6,8 3,7 24 13 36 19 ZW 1006,2 10
08.12.2018 02:00:00 7,2 3,4 21 11 36 19 ZW 1006,6 10
08.12.2018 01:00:00 7,2 3,1 22 12 - - WZW 1006,4 10
08.12.2018 00:00:00 7,3 3,1 22 12 36 19 WZW 1006,6 10
07.12.2018 23:00:00 7,4 3,4 18 10 43 23 WZW 1005,9 10
07.12.2018 22:00:00 7,4 4,8 21 11 - - WZW 1005,4 10
07.12.2018 21:00:00 6,7 4,7 21 11 61 33 WZW 1004,8 10
07.12.2018 20:00:00 8,0 4,0 22 12 43 23 W 1003,4 10
07.12.2018 19:00:00 8,1 6,1 16 9 - - W 1002,4 10
07.12.2018 18:00:00 7,8 5,6 24 13 61 33 WNW 1001,2 9
07.12.2018 17:00:00 9,2 7,6 29 16 54 29 W 999,7 3,0
07.12.2018 16:00:00 11,0 10,0 26 14 - - ZZW 998,5 8
07.12.2018 15:00:00 11,0 9,7 26 14 47 25 ZZW 999,6 6

tt = temperatuur
td = dauwpunt
ff = windsnelheid
fx = windstoten
dd = windrichting
ppp = luchtdruk
vv = zicht

Weerstations in de omgeving